081  
SXUS52 KJAX 132014  
OSOJAX  
OTHER SURFACE OBSERVATIONS  
NATIONAL WEATHER SERVICE JACKSONVILLE FL  
400 PM EDT THU AUG 13 2020  
 
FLZ020>025-030>033-035>038-040-132100-   
..FLORIDA
 
 
 
CITY SKY/WX TMP DP RH WIND PRES REMARKS  
CECIL FIELD PTSUNNY 93 75 55 VRB5 29.97F HX 104  
HERLONG FIELD NOT AVBL  
FERNANDINA BCH NOT AVBL  
LAKE CITY FAIR 84 70 61 SW7 30.00F  
JUNIPER SPGS NOT AVBL  
BUNNELL NOT AVBL  
KEYSTONE HGTS PTCLDY 93 68 43 S7 29.96F  

 
 
GAZ132>136-149>154-162>166-132100-   
..GEORGIA
 
 
 
CITY SKY/WX TMP DP RH WIND PRES REMARKS  
JESUP HAZE 81 70 69 CALM 29.98F VSB 1  
HOMERVILLE FAIR 86 73 66 N5 29.97F  
SWAINSBORO FAIR 93 72 49 SW7 29.94F HX 100  
CORDELE NOT AVBL  
EASTMAN FAIR 93 72 50 W7 29.97F HX 101  

 
 
PLEASE NOTE: THESE OBSERVATIONS ARE NOT QUALITY CONTROLLED AND MAY  
NOT BE AVAILABLE AT ALL TIMES.  

 
 
 
CLICK HERE TO GO TO PREVIOUS BULLETINS.

The Nexlab FL Page
The Nexlab GA Page Main Text Page